| time (UTC) | temp C | wind direction | speed KPH | gust KPH | rain 1hr cm | rain 24hr cm | rain mn cm | humidity % | barometer mb |
| 20260507155422 | 14 | 193 | 0.0 | 0.0 | 0.00 | 0.00 | 0.00 | 63 | 1015.8 |
| 20260507154416 | 14 | 160 | 0.0 | 0.0 | 0.00 | 0.00 | 0.00 | 65 | 1015.8 |
| 20260507153410 | 14 | 46 | 0.0 | 1.6 | 0.00 | 0.00 | 0.00 | 61 | 1015.9 |
| 20260507152423 | 15 | 286 | 0.0 | 0.0 | 0.00 | 0.00 | 0.00 | 64 | 1015.9 |
| 20260507151431 | 15 | 328 | 0.0 | 0.0 | 0.00 | 0.00 | 0.00 | 60 | 1016.0 |
| 20260507150434 | 15 | 80 | 0.0 | 0.0 | 0.00 | 0.00 | 0.00 | 58 | 1016.0 |
| 20260507143139 | 15 | 139 | 0.0 | 1.6 | 0.00 | 0.00 | 0.00 | 61 | 1016.0 |
| 20260507142146 | 15 | 340 | 0.0 | 0.0 | 0.00 | 0.00 | 0.00 | 59 | 1016.2 |
| 20260507141146 | 15 | 148 | 0.0 | 1.6 | 0.00 | 0.00 | 0.00 | 60 | 1016.3 |
| 20260507140126 | 15 | 13 | 0.0 | 1.6 | 0.00 | 0.00 | 0.00 | 59 | 1016.3 |
| 20260507135105 | 15 | 257 | 0.0 | 1.6 | 0.00 | 0.00 | 0.00 | 57 | 1016.3 |
| 20260507134037 | 15 | 110 | 0.0 | 0.0 | 0.00 | 0.00 | 0.00 | 59 | 1016.3 |
| 20260507133101 | 15 | 242 | 0.0 | 0.0 | 0.00 | 0.00 | 0.00 | 61 | 1016.3 |
| 20260507132115 | 15 | 113 | 0.0 | 6.4 | 0.00 | 0.00 | 0.00 | 57 | 1016.3 |
| 20260507130012 | 15 | 125 | 0.0 | 1.6 | 0.00 | 0.00 | 0.00 | 58 | 1016.4 |
| 20260507123836 | 14 | 352 | 0.0 | 0.0 | 0.00 | 0.00 | 0.00 | 59 | 1016.5 |
| 20260507122857 | 14 | 268 | 0.0 | 1.6 | 0.00 | 0.00 | 0.00 | 61 | 1016.5 |
| 20260507121915 | 13 | 32 | 0.0 | 0.0 | 0.00 | 0.00 | 0.00 | 63 | 1016.5 |
| 20260507120855 | 13 | 304 | 0.0 | 0.0 | 0.00 | 0.00 | 0.00 | 66 | 1016.7 |
| 20260507115833 | 13 | 11 | 0.0 | 0.0 | 0.00 | 0.00 | 0.00 | 64 | 1016.8 |
| 20260507114841 | 13 | 81 | 0.0 | 0.0 | 0.00 | 0.00 | 0.00 | 66 | 1016.8 |
| 20260507113840 | 13 | 88 | 0.0 | 0.0 | 0.00 | 0.00 | 0.00 | 62 | 1016.8 |
| 20260507111633 | 13 | 128 | 0.0 | 1.6 | 0.00 | 0.00 | 0.00 | 60 | 1016.9 |
| 20260507110616 | 13 | 278 | 0.0 | 0.0 | 0.00 | 0.00 | 0.00 | 63 | 1017.0 |
| 20260507102224 | 13 | 6 | 0.0 | 3.2 | 0.00 | 0.00 | 0.00 | 66 | 1017.2 |
| 20260507101210 | 13 | 124 | 0.0 | 0.0 | 0.00 | 0.00 | 0.00 | 67 | 1017.2 |
| 20260507095133 | 13 | 125 | 0.0 | 0.0 | 0.00 | 0.00 | 0.00 | 65 | 1017.3 |
| 20260507094143 | 13 | 18 | 0.0 | 0.0 | 0.00 | 0.00 | 0.00 | 66 | 1017.1 |
| 20260507093152 | 13 | 79 | 0.0 | 0.0 | 0.00 | 0.00 | 0.00 | 67 | 1017.1 |
| 20260507092125 | 13 | 243 | 0.0 | 0.0 | 0.00 | 0.00 | 0.00 | 67 | 1017.1 |
| 20260507091057 | 12 | 217 | 0.0 | 4.8 | 0.00 | 0.00 | 0.00 | 68 | 1017.3 |
| 20260507090023 | 12 | 53 | 0.0 | 0.0 | 0.00 | 0.00 | 0.00 | 71 | 1017.3 |
| 20260507083831 | 11 | 250 | 0.0 | 1.6 | 0.00 | 0.00 | 0.00 | 71 | 1017.4 |
| 20260507082830 | 11 | 94 | 0.0 | 1.6 | 0.00 | 0.00 | 0.00 | 73 | 1017.4 |
| 20260507080718 | 11 | 27 | 0.0 | 0.0 | 0.00 | 0.00 | 0.00 | 73 | 1017.4 |
| 20260507075715 | 11 | 136 | 0.0 | 0.0 | 0.00 | 0.00 | 0.00 | 74 | 1017.5 |
| 20260507074716 | 10 | 133 | 0.0 | 0.0 | 0.00 | 0.00 | 0.00 | 75 | 1017.5 |
| 20260507072549 | 10 | 0 | 0.0 | 0.0 | 0.00 | 0.00 | 0.00 | 76 | 1017.5 |
| 20260507070442 | 8 | 82 | 0.0 | 0.0 | 0.00 | 0.00 | 0.00 | 82 | 1017.6 |
| 20260507065413 | 8 | 120 | 0.0 | 0.0 | 0.00 | 0.00 | 0.00 | 87 | 1017.6 |
| 20260507064435 | 8 | 74 | 0.0 | 0.0 | 0.00 | 0.00 | 0.00 | 89 | 1017.5 |
| 20260507062324 | 5 | 268 | 0.0 | 0.0 | 0.00 | 0.00 | 0.00 | 89 | 1017.4 |
| 20260507061312 | 6 | 268 | 0.0 | 0.0 | 0.00 | 0.00 | 0.00 | 89 | 1017.3 |
| 20260507060307 | 5 | 266 | 0.0 | 0.0 | 0.00 | 0.00 | 0.00 | 92 | 1017.3 |
| 20260507055316 | 3 | 266 | 0.0 | 0.0 | 0.00 | 0.00 | 0.00 | 90 | 1017.1 |
| 20260507054248 | 2 | 266 | 0.0 | 0.0 | 0.00 | 0.00 | 0.00 | 90 | 1017.2 |
| 20260507052208 | 2 | 266 | 0.0 | 0.0 | 0.00 | 0.00 | 0.00 | 91 | 1017.1 |
| 20260507051231 | 2 | 266 | 0.0 | 0.0 | 0.00 | 0.00 | 0.00 | 91 | 1017.1 |
| 20260507050242 | 2 | 266 | 0.0 | 0.0 | 0.00 | 0.00 | 0.00 | 91 | 1017.0 |
| 20260507045219 | 1 | 266 | 0.0 | 0.0 | 0.00 | 0.00 | 0.00 | 90 | 1017.1 |
| 20260507044157 | 1 | 266 | 0.0 | 0.0 | 0.00 | 0.00 | 0.00 | 90 | 1017.0 |
| 20260507043144 | 1 | 266 | 0.0 | 0.0 | 0.00 | 0.00 | 0.00 | 90 | 1016.9 |
| 20260507042159 | 1 | 266 | 0.0 | 0.0 | 0.00 | 0.00 | 0.00 | 90 | 1016.9 |
| 20260507035945 | 1 | 266 | 0.0 | 0.0 | 0.00 | 0.00 | 0.00 | 90 | 1017.0 |
| 20260507033832 | 1 | 266 | 0.0 | 0.0 | 0.00 | 0.00 | 0.00 | 90 | 1017.0 |
| 20260507032849 | 1 | 266 | 0.0 | 0.0 | 0.00 | 0.00 | 0.00 | 90 | 1017.1 |
| 20260507030659 | 2 | 266 | 0.0 | 0.0 | 0.00 | 0.00 | 0.00 | 90 | 1017.0 |
| 20260507025628 | 2 | 266 | 0.0 | 0.0 | 0.00 | 0.00 | 0.00 | 90 | 1016.9 |
| 20260507022323 | 2 | 266 | 0.0 | 0.0 | 0.00 | 0.00 | 0.00 | 89 | 1017.0 |
| 20260507021307 | 3 | 266 | 0.0 | 0.0 | 0.00 | 0.00 | 0.00 | 89 | 1017.0 |
| 20260507015235 | 3 | 266 | 0.0 | 0.0 | 0.00 | 0.00 | 0.00 | 90 | 1016.9 |
| 20260507014207 | 3 | 255 | 0.0 | 0.0 | 0.00 | 0.00 | 0.00 | 90 | 1017.0 |
| 20260507013142 | 3 | 255 | 0.0 | 0.0 | 0.00 | 0.00 | 0.00 | 89 | 1017.0 |
| 20260507012115 | 3 | 255 | 0.0 | 0.0 | 0.00 | 0.00 | 0.00 | 90 | 1017.0 |
| 20260507011113 | 3 | 71 | 0.0 | 0.0 | 0.00 | 0.00 | 0.00 | 89 | 1017.1 |
| 20260507010056 | 3 | 70 | 0.0 | 0.0 | 0.00 | 0.00 | 0.00 | 89 | 1017.0 |
| 20260507005041 | 3 | 72 | 0.0 | 0.0 | 0.00 | 0.00 | 0.00 | 89 | 1017.1 |
| 20260507002903 | 3 | 72 | 0.0 | 0.0 | 0.00 | 0.00 | 0.00 | 89 | 1017.1 |
| 20260507001911 | 3 | 72 | 0.0 | 0.0 | 0.00 | 0.00 | 0.00 | 89 | 1017.2 |
| 20260507000926 | 3 | 72 | 0.0 | 0.0 | 0.00 | 0.00 | 0.00 | 88 | 1017.2 |
| 20260506235938 | 3 | 72 | 0.0 | 0.0 | 0.00 | 0.00 | 0.00 | 88 | 1017.2 |
| 20260506235001 | 3 | 72 | 0.0 | 0.0 | 0.00 | 0.00 | 0.00 | 88 | 1017.3 |
| 20260506234002 | 3 | 72 | 0.0 | 0.0 | 0.00 | 0.00 | 0.00 | 88 | 1017.2 |
| 20260506232959 | 3 | 72 | 0.0 | 0.0 | 0.00 | 0.00 | 0.00 | 88 | 1017.3 |
| 20260506231953 | 3 | 72 | 0.0 | 0.0 | 0.00 | 0.00 | 0.00 | 87 | 1017.2 |
| 20260506230932 | 3 | 72 | 0.0 | 0.0 | 0.00 | 0.00 | 0.00 | 87 | 1017.3 |
| 20260506225923 | 3 | 72 | 0.0 | 0.0 | 0.00 | 0.00 | 0.00 | 87 | 1017.3 |
| 20260506224859 | 3 | 72 | 0.0 | 0.0 | 0.00 | 0.00 | 0.00 | 87 | 1017.4 |
| 20260506223842 | 4 | 72 | 0.0 | 0.0 | 0.00 | 0.00 | 0.00 | 86 | 1017.4 |
| 20260506222827 | 4 | 72 | 0.0 | 0.0 | 0.00 | 0.00 | 0.00 | 86 | 1017.4 |
| 20260506221818 | 4 | 72 | 0.0 | 0.0 | 0.00 | 0.00 | 0.00 | 86 | 1017.4 |
| 20260506220823 | 4 | 72 | 0.0 | 0.0 | 0.00 | 0.00 | 0.00 | 85 | 1017.4 |
| 20260506215750 | 5 | 72 | 0.0 | 0.0 | 0.00 | 0.00 | 0.00 | 85 | 1017.4 |
| 20260506214802 | 5 | 72 | 0.0 | 0.0 | 0.00 | 0.00 | 0.00 | 84 | 1017.3 |
| 20260506213811 | 5 | 72 | 0.0 | 0.0 | 0.00 | 0.00 | 0.00 | 84 | 1017.3 |
| 20260506212757 | 5 | 72 | 0.0 | 0.0 | 0.00 | 0.00 | 0.00 | 83 | 1017.3 |
| 20260506211723 | 5 | 72 | 0.0 | 0.0 | 0.00 | 0.00 | 0.00 | 83 | 1017.2 |
| 20260506204518 | 6 | 72 | 0.0 | 0.0 | 0.00 | 0.00 | 0.00 | 79 | 1017.0 |
| 20260506203534 | 6 | 72 | 0.0 | 0.0 | 0.00 | 0.00 | 0.00 | 78 | 1017.0 |
| 20260506202536 | 7 | 72 | 0.0 | 0.0 | 0.00 | 0.00 | 0.00 | 77 | 1016.9 |
| 20260506201555 | 7 | 124 | 0.0 | 0.0 | 0.00 | 0.00 | 0.00 | 76 | 1016.8 |
| 20260506200603 | 7 | 62 | 0.0 | 0.0 | 0.00 | 0.00 | 0.00 | 74 | 1016.6 |
| 20260506195544 | 7 | 285 | 0.0 | 0.0 | 0.00 | 0.00 | 0.00 | 73 | 1016.5 |
| 20260506194547 | 8 | 56 | 0.0 | 6.4 | 0.00 | 0.00 | 0.00 | 72 | 1016.2 |
| 20260506193525 | 8 | 49 | 0.0 | 0.0 | 0.00 | 0.00 | 0.00 | 71 | 1016.1 |
| 20260506192537 | 8 | 98 | 0.0 | 8.0 | 0.00 | 0.00 | 0.00 | 69 | 1016.3 |
| 20260506191509 | 8 | 146 | 0.0 | 4.8 | 0.00 | 0.00 | 0.00 | 69 | 1016.4 |
| 20260506185337 | 8 | 75 | 1.6 | 8.0 | 0.00 | 0.00 | 0.00 | 69 | 1016.3 |
| 20260506184307 | 8 | 79 | 3.2 | 11.3 | 0.00 | 0.00 | 0.00 | 69 | 1016.3 |
| 20260506183251 | 9 | 135 | 3.2 | 11.3 | 0.00 | 0.00 | 0.00 | 69 | 1016.3 |
| 20260506182245 | 9 | 60 | 1.6 | 11.3 | 0.00 | 0.00 | 0.00 | 68 | 1016.3 |
| 20260506181234 | 9 | 87 | 0.0 | 6.4 | 0.00 | 0.00 | 0.00 | 68 | 1016.2 |
| 20260506180254 | 9 | 118 | 0.0 | 4.8 | 0.00 | 0.00 | 0.00 | 67 | 1016.1 |
| 20260506174131 | 10 | 105 | 0.0 | 8.0 | 0.00 | 0.00 | 0.00 | 65 | 1016.0 |
| 20260506173100 | 10 | 103 | 0.0 | 9.7 | 0.00 | 0.00 | 0.00 | 64 | 1016.0 |
| 20260506172117 | 10 | 132 | 0.0 | 8.0 | 0.00 | 0.00 | 0.00 | 66 | 1016.0 |
| 20260506170003 | 10 | 105 | 0.0 | 9.7 | 0.00 | 0.00 | 0.00 | 64 | 1015.9 |
| 20260506164941 | 10 | 89 | 1.6 | 8.0 | 0.00 | 0.00 | 0.00 | 64 | 1015.8 |
| 20260506162826 | 11 | 98 | 0.0 | 9.7 | 0.00 | 0.00 | 0.00 | 64 | 1015.8 |
| 20260506160657 | 11 | 284 | 0.0 | 12.9 | 0.00 | 0.00 | 0.00 | 64 | 1015.7 |
| 20260506155722 | 11 | 295 | 1.6 | 14.5 | 0.00 | 0.00 | 0.00 | 64 | 1015.8 |